timestamp,wind_dir_avg,wind_spd_avg,wind_spd_max_dir,wind_spd_gust,battery_voltage,lat,long
2022-11-29 00:04:01+00:00,208.0,8.35,215.0,10.3,12.09,47.59359,-54.27349
2022-11-29 00:14:00+00:00,205.0,8.14,211.0,9.41,12.09,47.59359,-54.27349
2022-11-29 00:24:00+00:00,201.0,9.53,213.0,11.71,12.09,47.59359,-54.27349
2022-11-29 00:34:00+00:00,206.0,9.55,217.0,11.43,12.09,47.59359,-54.27349
2022-11-29 00:44:00+00:00,208.0,10.15,214.0,12.09,12.09,47.59359,-54.27349
2022-11-29 00:54:00+00:00,215.0,11.34,228.0,13.24,12.09,47.59359,-54.27349
2022-11-29 01:04:00+00:00,209.0,7.56,217.0,9.75,12.09,47.59359,-54.27349
2022-11-29 01:14:00+00:00,216.0,6.83,239.0,9.54,12.09,47.59359,-54.27349
2022-11-29 01:24:00+00:00,208.0,7.56,213.0,8.64,12.09,47.59359,-54.27349
2022-11-29 01:34:00+00:00,205.0,6.62,214.0,7.93,12.09,47.59359,-54.27349
2022-11-29 01:44:00+00:00,213.0,6.11,227.0,8.0,12.09,47.59359,-54.27349
2022-11-29 01:54:00+00:00,219.0,6.31,229.0,8.98,12.09,47.59359,-54.27349
2022-11-29 02:04:00+00:00,219.0,7.33,224.0,10.77,12.09,47.59359,-54.27349
2022-11-29 02:14:00+00:00,212.0,5.17,231.0,6.94,12.09,47.59359,-54.27349
2022-11-29 02:24:00+00:00,235.0,7.44,235.0,8.84,12.09,47.59359,-54.27349
2022-11-29 02:34:00+00:00,236.0,7.97,235.0,9.12,12.09,47.59359,-54.27349
2022-11-29 02:44:00+00:00,237.0,8.34,238.0,9.13,12.09,47.59359,-54.27349
2022-11-29 02:54:00+00:00,245.0,7.68,244.0,8.58,12.09,47.59359,-54.27349
2022-11-29 03:04:00+00:00,258.0,7.88,258.0,9.84,12.09,47.59359,-54.27349
2022-11-29 03:14:00+00:00,267.0,8.32,270.0,12.63,12.09,47.59359,-54.27349
2022-11-29 03:24:00+00:00,292.0,13.55,295.0,15.26,12.09,47.59359,-54.27349
2022-11-29 03:34:00+00:00,309.0,8.58,320.0,9.79,12.09,47.59359,-54.27349
2022-11-29 03:44:00+00:00,312.0,9.62,314.0,11.28,12.09,47.59359,-54.27349
2022-11-29 03:54:00+00:00,302.0,12.01,292.0,15.02,12.09,47.59359,-54.27349
2022-11-29 04:04:00+00:00,308.0,11.98,306.0,13.1,12.09,47.59359,-54.27349
2022-11-29 04:14:01+00:00,309.0,11.81,299.0,14.6,12.09,47.59359,-54.27349
2022-11-29 04:24:01+00:00,304.0,11.01,308.0,12.47,12.09,47.59359,-54.27349
2022-11-29 04:34:01+00:00,306.0,11.98,301.0,13.81,12.09,47.59359,-54.27349
2022-11-29 04:44:01+00:00,308.0,11.53,308.0,13.85,12.09,47.59359,-54.27349
2022-11-29 04:54:01+00:00,297.0,10.12,291.0,12.19,12.09,47.59359,-54.27349
2022-11-29 05:04:01+00:00,296.0,10.47,295.0,12.11,12.09,47.59359,-54.27349
2022-11-29 05:14:00+00:00,302.0,10.44,306.0,11.74,12.09,47.59359,-54.27349
2022-11-29 05:24:00+00:00,298.0,9.14,294.0,10.86,12.09,47.59359,-54.27349
2022-11-29 05:34:00+00:00,309.0,10.5,312.0,12.28,12.09,47.59359,-54.27349
2022-11-29 05:44:00+00:00,304.0,10.06,299.0,13.16,12.09,47.59359,-54.27349
2022-11-29 05:54:00+00:00,299.0,10.32,300.0,12.86,12.09,47.59359,-54.27349
2022-11-29 06:04:00+00:00,302.0,10.47,301.0,12.87,12.09,47.59359,-54.27349
2022-11-29 06:14:00+00:00,310.0,10.92,324.0,12.74,12.09,47.59359,-54.27349
2022-11-29 06:24:00+00:00,304.0,9.46,317.0,12.3,12.09,47.59359,-54.27349
2022-11-29 06:34:00+00:00,308.0,9.98,315.0,11.94,12.09,47.59359,-54.27349
2022-11-29 06:44:00+00:00,315.0,9.99,315.0,12.96,12.09,47.59359,-54.27349
2022-11-29 06:54:00+00:00,304.0,9.15,300.0,11.4,12.09,47.59359,-54.27349
2022-11-29 07:04:00+00:00,318.0,9.9,324.0,14.8,12.09,47.59359,-54.27349
2022-11-29 07:14:01+00:00,314.0,9.05,309.0,11.34,12.09,47.59359,-54.27349
2022-11-29 07:24:01+00:00,310.0,9.58,316.0,11.38,12.09,47.59359,-54.27349
2022-11-29 07:34:01+00:00,309.0,9.86,311.0,11.67,12.09,47.59359,-54.27349
2022-11-29 07:44:01+00:00,307.0,10.28,306.0,13.57,12.09,47.59359,-54.27349
2022-11-29 07:54:01+00:00,309.0,8.77,304.0,10.52,12.09,47.59359,-54.27349
2022-11-29 08:04:01+00:00,307.0,9.46,311.0,11.8,12.09,47.59359,-54.27349
2022-11-29 08:14:00+00:00,311.0,10.09,303.0,12.05,12.09,47.59359,-54.27349
2022-11-29 08:24:00+00:00,307.0,10.58,303.0,12.52,12.09,47.59359,-54.27349
2022-11-29 08:34:00+00:00,308.0,10.18,307.0,11.83,12.09,47.59359,-54.27349
2022-11-29 08:44:00+00:00,307.0,9.38,316.0,11.79,12.09,47.59359,-54.27349
2022-11-29 08:54:00+00:00,301.0,8.75,311.0,10.37,12.09,47.59359,-54.27349
2022-11-29 09:04:00+00:00,304.0,9.78,300.0,11.69,12.09,47.59359,-54.27349
2022-11-29 09:14:00+00:00,312.0,8.78,309.0,11.6,12.09,47.59359,-54.27349
2022-11-29 09:24:00+00:00,302.0,8.5,295.0,10.44,12.09,47.59359,-54.27349
2022-11-29 09:34:00+00:00,305.0,10.09,309.0,11.92,12.09,47.59359,-54.27349
2022-11-29 09:44:00+00:00,302.0,8.85,298.0,11.01,12.09,47.59359,-54.27349
2022-11-29 09:54:00+00:00,312.0,9.19,308.0,12.09,12.09,47.59359,-54.27349
2022-11-29 10:04:00+00:00,302.0,9.13,299.0,11.17,12.09,47.59359,-54.27349
2022-11-29 10:14:00+00:00,312.0,9.96,311.0,12.68,12.09,47.59359,-54.27349
2022-11-29 10:24:00+00:00,305.0,11.57,311.0,12.62,12.09,47.59359,-54.27349
2022-11-29 10:34:00+00:00,298.0,9.38,302.0,11.86,12.09,47.59359,-54.27349
2022-11-29 10:44:00+00:00,297.0,10.32,298.0,11.65,12.09,47.59359,-54.27349
2022-11-29 10:54:00+00:00,299.0,8.36,293.0,11.02,12.09,47.59359,-54.27349
2022-11-29 11:04:00+00:00,312.0,5.82,297.0,9.86,12.09,47.59359,-54.27349
2022-11-29 11:14:00+00:00,296.0,10.28,300.0,12.01,12.09,47.59359,-54.27349
2022-11-29 11:24:00+00:00,301.0,9.39,302.0,11.74,12.09,47.59359,-54.27349
2022-11-29 11:34:00+00:00,299.0,10.17,320.0,12.46,12.09,47.59359,-54.27349
2022-11-29 11:44:00+00:00,298.0,10.11,304.0,11.75,12.09,47.59359,-54.27349
2022-11-29 11:54:00+00:00,309.0,10.2,309.0,12.72,12.09,47.59359,-54.27349
2022-11-29 12:04:00+00:00,303.0,10.12,313.0,12.33,12.09,47.59359,-54.27349
2022-11-29 12:14:00+00:00,309.0,10.82,307.0,12.95,13.29,47.59359,-54.27349
2022-11-29 12:24:00+00:00,317.0,12.48,325.0,14.82,13.29,47.59359,-54.27349
2022-11-29 12:34:00+00:00,319.0,12.94,323.0,15.32,13.29,47.59359,-54.27349
2022-11-29 12:44:00+00:00,313.0,12.24,315.0,14.08,13.29,47.59359,-54.27349
2022-11-29 12:54:00+00:00,309.0,11.52,314.0,13.42,13.29,47.59359,-54.27349
2022-11-29 13:04:00+00:00,305.0,11.05,309.0,12.72,13.29,47.59359,-54.27349
2022-11-29 13:14:00+00:00,309.0,11.36,310.0,12.84,14.4,47.59359,-54.27349
2022-11-29 13:24:00+00:00,305.0,10.6,313.0,12.68,14.4,47.59359,-54.27349
2022-11-29 13:34:00+00:00,320.0,13.19,319.0,14.72,14.4,47.59359,-54.27349
2022-11-29 13:44:00+00:00,309.0,11.48,311.0,13.33,14.4,47.59359,-54.27349
2022-11-29 13:54:00+00:00,322.0,13.55,322.0,15.61,14.4,47.59359,-54.27349
2022-11-29 14:04:00+00:00,316.0,12.73,325.0,14.01,14.4,47.59359,-54.27349
2022-11-29 15:14:01+00:00,303.0,9.72,297.0,11.42,14.4,47.59359,-54.27349
2022-11-29 15:24:01+00:00,309.0,11.46,311.0,13.04,14.4,47.59359,-54.27349
2022-11-29 15:34:01+00:00,308.0,10.55,304.0,12.5,14.4,47.59359,-54.27349
2022-11-29 15:44:01+00:00,315.0,11.08,311.0,12.99,14.4,47.59359,-54.27349
2022-11-29 15:54:01+00:00,297.0,10.27,307.0,12.8,14.4,47.59359,-54.27349
2022-11-29 16:04:01+00:00,299.0,10.64,300.0,11.93,14.4,47.59359,-54.27349
2022-11-29 16:14:00+00:00,305.0,10.68,304.0,12.09,13.53,47.59359,-54.27349
2022-11-29 16:24:00+00:00,302.0,10.12,299.0,11.29,13.53,47.59359,-54.27349
2022-11-29 16:34:00+00:00,310.0,11.16,319.0,13.31,13.53,47.59359,-54.27349
2022-11-29 16:44:00+00:00,306.0,11.09,304.0,12.88,13.53,47.59359,-54.27349
2022-11-29 16:54:00+00:00,321.0,7.43,308.0,10.47,13.53,47.59359,-54.27349
2022-11-29 17:04:00+00:00,308.0,8.1,304.0,11.65,13.53,47.59359,-54.27349
2022-11-29 18:14:01+00:00,301.0,10.25,303.0,12.45,14.4,47.59359,-54.27349
2022-11-29 18:24:01+00:00,306.0,10.78,309.0,12.91,14.4,47.59359,-54.27349
2022-11-29 18:34:01+00:00,309.0,12.04,310.0,13.31,14.4,47.59359,-54.27349
2022-11-29 18:44:01+00:00,306.0,11.01,301.0,12.3,14.4,47.59359,-54.27349
2022-11-29 18:54:01+00:00,306.0,10.74,301.0,12.42,14.4,47.59359,-54.27349
2022-11-29 19:04:01+00:00,312.0,10.97,312.0,13.31,14.4,47.59359,-54.27349
2022-11-29 19:14:00+00:00,312.0,11.81,312.0,13.35,13.6,47.59359,-54.27349
2022-11-29 19:24:00+00:00,315.0,12.33,314.0,13.8,13.6,47.59359,-54.27349
2022-11-29 19:34:00+00:00,323.0,11.29,323.0,13.65,13.6,47.59359,-54.27349
2022-11-29 19:44:00+00:00,315.0,10.33,311.0,12.72,13.6,47.59359,-54.27349
2022-11-29 19:54:00+00:00,318.0,10.61,316.0,13.23,13.6,47.59359,-54.27349
2022-11-29 20:04:00+00:00,295.0,9.11,293.0,10.85,13.6,47.59359,-54.27349
2022-11-29 20:14:00+00:00,332.0,8.79,308.0,10.32,12.65,47.59359,-54.27349
2022-11-29 20:24:00+00:00,322.0,6.3,326.0,7.71,12.65,47.59359,-54.27349
2022-11-29 20:34:00+00:00,315.0,5.84,305.0,7.6,12.65,47.59359,-54.27349
2022-11-29 20:44:00+00:00,315.0,6.16,293.0,7.85,12.65,47.59359,-54.27349
2022-11-29 20:54:00+00:00,324.0,8.34,324.0,10.42,12.65,47.59359,-54.27349
2022-11-29 21:04:00+00:00,326.0,9.35,324.0,10.9,12.65,47.59359,-54.27349
2022-11-29 21:14:00+00:00,328.0,8.47,317.0,10.75,12.57,47.59359,-54.27349
2022-11-29 21:24:00+00:00,335.0,9.02,340.0,10.84,12.57,47.59359,-54.27349
2022-11-29 21:34:00+00:00,324.0,9.01,325.0,10.48,12.57,47.59359,-54.27349
2022-11-29 21:44:00+00:00,322.0,8.24,320.0,11.02,12.57,47.59359,-54.27349
2022-11-29 21:54:00+00:00,326.0,9.64,326.0,11.19,12.57,47.59359,-54.27349
2022-11-29 22:04:00+00:00,330.0,7.46,328.0,8.17,12.57,47.59359,-54.27349
2022-11-29 22:14:00+00:00,331.0,9.52,331.0,11.23,12.49,47.59359,-54.27349
2022-11-29 22:24:00+00:00,330.0,10.88,341.0,13.6,12.49,47.59359,-54.27349
2022-11-29 22:34:00+00:00,331.0,10.23,338.0,12.09,12.49,47.59359,-54.27349
2022-11-29 22:44:00+00:00,327.0,9.83,329.0,11.62,12.49,47.59359,-54.27349
2022-11-29 22:54:00+00:00,322.0,10.79,315.0,12.79,12.49,47.59359,-54.27349
2022-11-29 23:04:00+00:00,326.0,9.49,327.0,11.9,12.49,47.59359,-54.27349
2022-11-29 23:14:00+00:00,318.0,9.64,311.0,12.01,12.41,47.59359,-54.27349
2022-11-29 23:24:00+00:00,323.0,10.51,319.0,12.06,12.41,47.59359,-54.27349
2022-11-29 23:34:00+00:00,322.0,9.26,317.0,10.51,12.41,47.59359,-54.27349
2022-11-29 23:44:00+00:00,322.0,6.87,323.0,8.12,12.41,47.59359,-54.27349
2022-11-29 23:54:00+00:00,320.0,6.67,329.0,8.05,12.41,47.59359,-54.27349
